KINEIS-1D

Last updated on Fri Sep 11 2026 00:02:53 GMT+0000 (Coordinated Universal Time)

1 60082U 24114D 26253.57536331 .00000376 00000+0 61450-4 0 9994 2 60082 97.9876 272.7851 0000234 29.5578 330.5645 14.76418106119725
UTC large
Height (km)
Speed (km/s)
/
Latitude / Longitude
Inclination (degrees)
Orbital Period (minutes)
Azimuth
Elevation
Range (km)
Doppler Factor

Next 0 passes for location: London (51.5072 / 0.1276)

No passes found over London.
KINEIS-1D